Location: Bay Ridge
(40.6340°N, 74.0146°W)
Time: 12:31:42
(UTC+00:00)

Cosmos 858 Rocket - Pass Details

Date: 15 November 2019
Orbit: 755 x 775 km, 74.1° (Epoch: 15 December)

Event Time Altitude Azimuth Distance (km) Brightness Sun altitude
Rises 10:15:11 0° 209° (SSW) 3,196 7.5 -16.6°
Reaches altitude 10° 10:17:35 10° 214° (SSW) 2,275 6.7 -16.2°
Maximum altitude 10:22:38 56° 292° (WNW) 897 4.5 -15.2°
Drops below altitude 10° 10:27:44 10° 11° (N) 2,291 7.0 -14.3°
Sets 10:30:10 0° 16° (NNE) 3,222 7.8 -13.8°
